Regional Weather Roundup
Issued by NWS

Home | Current Version | Previous Version | Graphics & Text | Print | Product List | Glossary On
Versions: 1 2 3 4 5 6 7 8 9 10 11 12 13 14 15 16 17 18 19 20 21 22 23 24 25 26 27 28 29 30 31 32 33 34 35 36 37 38 39 40 41 42 43 44 45 46 47 48 49 50
000
ASUS43 KMKX 220200
RWRWI

WISCONSIN REGIONAL WEATHER ROUNDUP
NATIONAL WEATHER SERVICE MILWAUKEE/SULLIVAN WI
900 PM CDT MON MAY 21 2018

NOTE: "FAIR" INDICATES FEW OR NO CLOUDS BELOW 12,000 FEET WITH NO
SIGNIFICANT WEATHER AND/OR OBSTRUCTIONS TO VISIBILITY.

WIZ001-002-006>008-014>016-023>028-220300-
NORTHWEST WISCONSIN

CITY           SKY/WX    TMP DP  RH WIND       PRES   REMARKS
SUPERIOR ARPT  LGT RAIN  51  39  64 CALM      30.01F
ASHLAND        FAIR      50  36  58 CALM      30.01F
HAYWARD        MOCLDY    61  47  59 S6        30.01F
SIREN          CLOUDY    65  50  58 SE5       30.00S
CUMBERLAND     CLOUDY    59  50  72 SE8       30.01F
RICE LAKE      CLOUDY    60  52  77 SE8       30.03F
CHETEK         CLOUDY    59  54  83 E5        30.02F
LADYSMITH      CLOUDY    58  52  81 E5        30.05S
EAU CLAIRE     NOT AVBL
MENOMONIE      CLOUDY    59  53  81 E7        30.02S
NEW RICHMOND   CLOUDY    60  51  72 SE5       30.01S
OSCEOLA        CLOUDY    62  52  70 SE6       30.03S
$$

WIZ003>005-009-010-017-018-220300-
NORTH CENTRAL WISCONSIN

CITY           SKY/WX    TMP DP  RH WIND       PRES   REMARKS
MANITOWISH WTR CLOUDY    56  48  72 S3        30.04S
ARBOR VITAE    CLOUDY    57  48  72 S5        30.04F
WOODRUFF       CLOUDY    57  48  72 S5        30.04F
RHINELANDER    MOCLDY    52  50  93 E3        30.05F
EAGLE RIVER    CLOUDY    55  45  67 S5        30.05S
LAND O LAKES   MOCLDY    57  45  63 S3        30.06F
PHILLIPS       CLOUDY    55  51  87 E5        30.03F
TOMAHAWK       CLOUDY    52  49  90 CALM      30.05F
MEDFORD        CLOUDY    52  50  95 E5        30.03F
MERRILL        CLOUDY    53  52  99 E3        30.05S
$$

WIZ029-030-035-036-043>047-220300-
CENTRAL WISCONSIN

CITY           SKY/WX    TMP DP  RH WIND       PRES   REMARKS
WAUSAU         CLOUDY    53  51  93 E8        30.03S
MOSINEE        CLOUDY    52  50  93 E6        30.04F
MARSHFIELD     CLOUDY    53  52  96 E9        30.02S
STEVENS POINT  LGT RAIN  51  51 100 E12       30.04F
WAUPACA        CLOUDY    55  52  91 E7        30.04F
WAUTOMA        CLOUDY    53  51  93 E7        30.04S
WISC RAPIDS    CLOUDY    53  51  93 E8        30.04R
CAMP DOUGLAS   NOT AVBL
$$

WIZ011>013-019>022-031-037>040-048>050-220300-
NORTHEAST WISCONSIN

CITY           SKY/WX    TMP DP  RH WIND       PRES   REMARKS
ANTIGO         CLOUDY    50  48  94 SE7       30.06F
SHAWANO        CLOUDY    54  49  85 E6        30.07S
OCONTO         CLOUDY    51  48  90 CALM      30.08S
STURGEON BAY   MOCLDY    49  47  93 SE3       30.08F
GREEN BAY      CLOUDY    52  48  86 E6        30.07F
MANITOWOC      CLOUDY    49  48  97 NE6       30.07F
APPLETON       CLOUDY    52  48  87 E6        30.04S
CLINTONVILLE   CLOUDY    53  49  88 E5        30.06S
OSHKOSH        CLOUDY    52  49  89 E13       30.03F
$$

WIZ032>034-041-042-053>061-220300-
SOUTHWEST WISCONSIN

CITY           SKY/WX    TMP DP  RH WIND       PRES   REMARKS
LA CROSSE      CLOUDY    59  57  93 CALM      29.99S
SPARTA         CLOUDY    56  55  95 E5        30.01S
VIROQUA        CLOUDY    57  57 100 E5        30.00S
BOSCOBEL       CLOUDY    60  58  92 CALM      29.99S FOG
PRAIRIE DU CHI CLOUDY    59  57  94 CALM      29.98S
PLATTEVILLE    CLOUDY    60  60 100 E7        29.99S
$$

WIZ056-057-062-063-064-067-068-220300-
SOUTH CENTRAL WISCONSIN

CITY           SKY/WX    TMP DP  RH WIND       PRES   REMARKS
REEDSBURG      CLOUDY    54  54 100 E5        30.00S
BARABOO/DELLS  CLOUDY    54  52  95 E6        30.02R FOG
LONE ROCK      CLOUDY    58  58 100 E7        29.99S FOG
MINERAL POINT  CLOUDY    59  59 100 E3        29.99S FOG
MADISON        CLOUDY    54  53  97 E7        30.00S
MIDDLETON      CLOUDY    56  55  95 E6        30.01S
WATERTOWN      CLOUDY    50  50 100 E6        30.01F
MONROE         FOG       57  57 100 E8        29.99S VSB 3/4
JANESVILLE     CLOUDY    57  57 100 E7        30.00S
$$

WIZ051-052-058>065-066-070>072-220300-
SOUTHEAST WISCONSIN

CITY           SKY/WX    TMP DP  RH WIND       PRES   REMARKS
MILWAUKEE      DRZL/FOG  47  47 100 NE5       30.02F VSB 1/4
WAUKESHA       FOG       46  46 100 NE10      30.03S VSB 1/4
MILWAUKEE/TIMM FOG       46  45  93 NE7       30.03F VSB 1/4
RACINE         FOG       47  47 100 N7        30.03S VSB 1
BURLINGTON     CLOUDY    53  52  97 NE5       30.00S FOG
KENOSHA        FOG       50  49  96 NE7       30.00F VSB 1/4
FOND DU LAC    CLOUDY    51  49  92 E7        30.04S
SHEBOYGAN      CLOUDY    48  47  96 NE8       30.05F FOG
WEST BEND      CLOUDY    46  46 100 E8        30.03F FOG
JUNEAU         FOG       50  49  98 E10       30.03S VSB 1
$$

LSZ147-162-220300-
LAKE SUPERIOR

STATION/POSITION TIME  TEMP    WIND        PRES    WAVE
                       AIR SEA DIR/SP/G            HT/PER
                 (UTC) (F)     (DEG/KT/KT) (MB)    (FT/S)
W MID LAKE BUOY  0050   42 36   50/  8/  8 1016.4F   0
DEVILS ISLAND    0100   49      90/  4/  5 1016.9F
SAXON HARBOR     0130   52     350/  3/  5 1015.9R
$$

LMZ867-665-643>646-220300-
LAKE MICHIGAN

STATION/POSITION TIME  TEMP    WIND        PRES    WAVE
                       AIR SEA DIR/SP/G            HT/PER
                 (UTC) (F)     (DEG/KT/KT) (MB)    (FT/S)
NORTHPORT PIER   0140   46                 1018.6S
KEWAUNEE LAKESHO 0130   46      70/  2/  3 1017.9F
SHEBOYGAN LAKESH 0100   46      20/  8/  9 1018.2F
PORT WASHINGTON  0140   49      40/ 10/ 13 1018.3F
ATWATER BUOY     0107   45 47   20/ 12/ 16 1016.7
MILWAUKEE LAKESH 0130   46      20/ 11/ 13   N/A
KENOSHA   LAKESH 0100   47                 1016.3
$$

TC  - TEMPERATURE IN CELSIUS
VSB - VISIBILITY IN STATUTE MILES
WCI - WIND CHILL INDEX
HX  - HEAT INDEX





USA.gov is the U.S. government's official web portal to all federal, state and local government web resources and services.